Wind_Speed
44 46 48 51 55 55 53 52 52 51 49 46 44 42 43 43 44 44 43 42 41 41 40 41 42 43 45 48 51 52 53 54 56 58 60 61 61 62 62 59 52 48 48
49 51 51 53 56 54 51 51 49 47 45 43 41 41 40 40 40 39 37 37 37 38 40 42 44 46 48 50 54 56 58 58 59 61 63 63 63 63 63 60 55 50 49
52 52 50 51 54 51 50 50 50 45 41 40 38 37 36 36 34 33 34 35 37 39 42 45 48 50 52 55 58 60 62 63 62 62 63 64 64 61 58 56 55 54 53
55 54 49 50 49 49 52 54 53 50 46 41 36 35 34 34 34 33 34 36 38 41 44 48 52 55 58 60 62 64 66 66 65 66 66 67 67 64 62 54 50 53 57
59 53 49 51 51 52 53 52 48 47 46 41 35 34 34 34 34 34 35 38 42 46 50 53 55 57 59 61 62 63 65 67 68 69 70 71 72 70 68 64 54 50 54
53 48 50 53 51 50 50 46 44 46 42 34 32 33 33 32 32 34 37 41 45 48 51 54 56 58 59 59 59 60 62 63 65 67 69 72 74 76 74 73 71 64 58
45 41 46 48 48 47 46 45 48 49 42 33 33 33 31 31 32 37 40 42 43 47 51 52 48 45 45 47 50 54 58 61 63 62 62 64 68 72 74 76 75 72 64
40 36 41 45 47 49 48 50 55 51 35 32 33 31 31 32 34 40 40 41 43 46 45 38 37 41 43 46 48 52 58 60 61 60 60 60 62 65 69 75 73 71 69
39 39 41 44 47 51 51 56 58 39 33 33 33 32 32 32 37 39 39 42 42 38 36 37 38 38 40 44 48 51 54 56 55 55 55 57 59 61 65 70 69 69 67
41 42 44 47 49 53 53 57 48 36 34 33 31 32 32 34 37 37 40 43 39 36 36 35 35 37 40 44 47 47 45 45 47 47 49 52 53 55 59 65 66 68 66
42 43 46 50 52 53 50 54 47 37 36 32 32 32 32 35 36 37 40 39 36 35 36 34 36 38 41 43 44 45 44 40 40 42 43 44 47 47 49 54 62 66 68
42 41 44 48 49 46 44 46 41 38 34 32 33 34 34 35 34 36 38 36 35 36 34 33 35 36 36 38 40 41 41 37 35 37 38 39 42 42 42 42 49 58 65
44 38 39 43 40 35 33 33 34 34 33 34 35 35 35 34 33 35 36 35 35 35 32 32 33 34 34 35 35 36 35 34 31 33 35 35 36 37 36 37 39 46 52
39 37 35 34 32 32 33 33 35 35 33 33 33 35 35 33 34 35 36 36 36 34 32 31 32 33 33 32 31 34 34 31 28 27 30 32 31 32 34 35 35 39 43
40 40 39 36 34 36 37 38 40 36 34 34 35 35 36 35 36 36 37 38 36 34 34 34 34 33 33 32 31 32 32 32 30 26 24 27 29 31 34 36 34 36 39
43 39 37 36 35 36 37 39 39 36 36 35 35 36 36 36 37 38 38 39 37 36 36 36 35 35 34 33 34 32 32 33 32 31 28 25 24 26 30 35 37 38 40
40 38 37 37 37 37 37 38 37 36 35 36 38 36 36 37 38 39 40 41 39 37 38 37 36 36 35 35 35 33 34 34 33 30 28 28 27 27 27 28 31 35 39
36 36 37 36 36 33 32 34 34 35 35 38 39 38 38 38 39 41 42 43 40 37 38 37 37 36 36 36 37 35 35 36 36 33 31 30 31 32 33 34 34 35 37
34 38 39 38 30 25 28 33 34 31 33 37 39 39 39 39 41 43 44 43 39 37 37 37 37 37 37 38 39 38 39 40 40 39 39 39 38 39 39 40 40 43 45
34 36 36 31 27 31 34 38 41 39 37 37 39 40 40 41 42 44 45 42 38 37 36 38 37 37 37 39 40 41 42 43 43 43 44 45 47 47 48 50 51 51 51
33 35 31 26 28 32 37 40 41 39 37 38 40 41 43 43 43 44 43 40 39 37 37 38 38 37 39 40 42 44 45 46 46 46 47 49 51 53 55 58 60 60 57
34 31 25 25 30 34 35 36 38 37 37 38 42 45 45 44 44 42 41 39 39 38 38 39 39 39 40 42 44 47 48 50 51 52 52 53 54 57 60 63 65 64 60
45 39 26 24 30 34 34 36 39 40 41 42 45 46 44 42 41 40 40 39 38 39 38 38 39 41 44 46 48 50 51 53 55 56 57 59 60 63 65 67 67 67 66
33 38 37 33 32 31 32 35 37 37 39 44 45 43 41 39 38 39 38 38 38 39 39 39 41 44 47 49 51 53 55 56 58 60 62 64 67 69 69 68 67 65 65
31 33 38 35 31 29 33 40 39 38 42 44 42 41 38 37 37 38 38 39 39 40 40 42 44 48 50 52 54 56 57 60 62 64 66 69 71 69 66 63 60 58 58
29 28 32 34 33 32 37 41 41 42 43 41 40 38 36 36 37 38 38 40 42 42 44 47 50 52 54 56 57 59 61 65 67 69 72 72 69 65 60 57 55 55 53
Wind_Direction
304 301 297 295 292 290 290 288 287 285 283 281 277 274 272 272 270 267 264 263 265 267 269 270 272 274 275 275 275 273 272 271 271 271 271 270 270 270 270 267 259 251 249
299 300 299 295 291 289 287 286 284 282 279 276 273 272 270 267 265 264 265 266 268 270 271 272 272 272 272 272 273 274 274 272 270 270 269 267 268 271 271 269 263 254 246
297 298 298 292 290 288 286 285 282 278 274 271 269 266 264 262 262 264 267 269 273 276 278 278 276 275 274 274 273 272 271 270 269 268 269 268 269 267 265 264 261 254 247
296 296 293 288 286 283 284 285 282 275 270 265 264 266 267 264 265 269 272 275 278 281 282 282 281 280 278 275 272 270 267 266 264 264 265 267 269 267 266 261 256 254 246
294 292 287 284 283 283 284 284 283 277 272 267 266 266 265 269 274 278 281 284 288 289 288 285 281 277 275 272 271 271 270 268 266 264 262 262 264 265 264 263 258 253 247
293 289 284 284 286 286 283 278 275 274 270 262 263 263 266 272 278 283 287 288 289 287 284 282 280 279 278 277 277 277 276 273 270 266 263 261 259 259 259 262 261 260 256
288 284 280 281 284 283 280 275 270 268 265 254 260 264 268 275 280 284 287 286 286 286 285 285 285 285 283 281 281 280 279 276 272 268 266 264 261 258 256 256 258 260 260
286 281 280 281 280 279 281 277 275 272 257 260 264 264 270 275 282 287 287 287 288 286 283 280 284 286 283 283 285 284 281 277 272 268 266 265 264 261 256 254 253 255 253
285 281 278 278 277 277 280 281 286 272 264 263 262 266 271 276 284 286 286 288 288 283 279 283 287 287 290 293 295 296 289 281 275 270 267 268 266 261 256 253 251 251 253
283 280 276 275 275 276 278 281 283 278 269 261 260 268 270 277 285 286 290 293 290 285 285 284 284 288 294 300 305 308 301 284 277 272 274 272 264 260 257 256 253 248 247
283 279 278 276 274 275 277 280 280 273 264 258 261 266 272 283 289 292 294 291 288 288 286 283 286 291 296 301 306 310 309 295 281 274 276 272 265 261 261 258 257 253 246
279 282 282 279 277 277 280 280 271 264 262 262 266 269 275 282 288 295 296 292 290 290 283 281 285 291 295 299 305 310 314 308 288 277 276 274 269 262 263 262 260 259 251
278 282 282 276 271 275 273 265 262 261 262 264 265 267 273 280 288 297 300 294 293 293 284 280 284 289 293 299 306 312 319 319 302 282 278 278 273 264 265 266 261 260 258
272 269 277 274 274 274 264 264 263 259 262 266 268 270 275 282 288 294 304 296 291 293 284 279 286 289 292 299 306 313 318 323 321 302 284 280 276 265 264 267 262 260 261
269 269 276 280 273 263 261 261 261 263 267 269 270 275 277 281 287 293 300 302 290 289 283 280 286 287 289 297 305 309 311 318 325 323 307 287 279 269 265 266 262 260 261
275 273 266 270 271 269 266 264 266 266 266 270 273 278 281 284 287 292 296 302 292 286 285 281 283 285 285 293 301 306 306 310 315 320 319 313 299 284 273 267 263 259 257
291 278 268 272 273 273 276 277 276 271 274 277 278 283 286 286 287 292 296 298 291 283 283 279 280 282 282 288 295 303 305 305 308 309 311 312 312 308 299 289 279 270 261
279 276 269 271 272 278 284 283 277 275 277 280 283 285 287 287 289 291 294 294 288 281 280 276 279 280 280 286 292 298 301 303 303 304 304 302 301 300 300 299 297 293 283
274 274 270 265 269 277 285 288 280 278 277 280 284 286 288 288 289 291 291 290 285 281 278 275 277 277 278 283 290 294 297 300 303 304 303 302 300 298 295 295 295 293 288
260 260 258 255 262 270 280 285 285 278 276 282 287 288 288 288 290 290 290 287 282 279 276 275 275 275 276 282 288 291 294 296 299 300 299 298 297 296 294 294 295 294 287
244 249 249 258 271 276 281 282 281 277 276 283 289 290 288 289 290 290 288 283 279 277 276 275 275 274 276 281 287 290 293 295 297 297 296 295 294 293 293 294 295 294 288
271 259 256 266 276 283 288 287 281 277 280 284 287 290 289 289 289 288 284 280 277 277 277 276 274 275 277 281 286 290 293 295 297 297 296 294 293 293 294 295 296 293 287
280 273 273 273 273 283 291 290 283 277 281 286 288 290 289 289 287 285 282 279 278 279 278 276 276 278 281 283 286 289 292 294 297 299 298 298 298 297 298 297 296 294 289
281 269 264 278 280 286 293 297 294 286 282 284 288 291 291 288 285 283 280 280 280 280 277 277 279 281 284 286 288 291 293 296 298 300 300 301 301 301 301 299 296 293 287
272 259 259 268 275 285 291 295 294 289 287 288 291 293 290 285 283 282 281 282 282 281 279 280 283 286 288 289 290 291 294 297 299 301 302 303 303 302 300 297 292 287 282
264 242 243 256 277 286 287 293 296 294 293 293 294 291 286 282 282 284 285 285 285 283 283 284 287 289 290 291 292 294 297 300 302 303 304 304 303 301 297 292 287 284 281
Height
5755 5751 5748 5742 5736 5732 5730 5727 5724 5722 5719 5717 5714 5713 5711 5710 5709 5708 5708 5707 5706 5705 5704 5704 5703 5701 5700 5699 5698 5697 5696 5695 5693 5691 5690 5691 5692 5693 5695 5698 5701 5704 5707
5743 5739 5735 5729 5722 5721 5718 5714 5711 5709 5706 5704 5703 5701 5700 5699 5698 5697 5696 5695 5695 5694 5693 5692 5690 5689 5688 5685 5683 5681 5680 5680 5678 5675 5673 5675 5677 5679 5679 5681 5685 5688 5690
5730 5725 5721 5715 5710 5708 5706 5702 5699 5696 5694 5692 5691 5690 5689 5689 5688 5687 5686 5685 5683 5680 5679 5677 5676 5674 5672 5669 5667 5665 5664 5664 5663 5660 5657 5656 5658 5662 5665 5665 5666 5669 5674
5715 5711 5707 5701 5698 5696 5694 5689 5686 5683 5681 5679 5678 5677 5678 5677 5677 5676 5674 5673 5671 5669 5667 5664 5661 5658 5654 5651 5649 5647 5645 5644 5645 5643 5641 5639 5638 5642 5644 5648 5650 5649 5653
5702 5698 5692 5688 5684 5681 5678 5674 5671 5669 5668 5667 5667 5666 5667 5666 5665 5664 5662 5660 5657 5654 5651 5648 5646 5643 5640 5636 5632 5629 5627 5623 5623 5623 5623 5623 5623 5625 5624 5626 5630 5631 5633
5687 5683 5678 5673 5670 5667 5664 5661 5659 5656 5655 5655 5656 5656 5656 5656 5655 5653 5651 5648 5644 5641 5637 5633 5629 5626 5622 5619 5616 5613 5609 5605 5602 5600 5601 5603 5604 5605 5606 5608 5611 5612 5616
5673 5670 5664 5660 5658 5654 5651 5649 5648 5645 5644 5644 5644 5645 5645 5645 5644 5643 5640 5637 5632 5628 5623 5618 5614 5611 5608 5605 5602 5598 5593 5588 5584 5582 5582 5582 5583 5583 5587 5590 5591 5596 5600
5660 5658 5654 5650 5647 5641 5639 5638 5634 5634 5632 5632 5632 5633 5634 5634 5633 5631 5628 5624 5620 5615 5609 5605 5603 5600 5596 5592 5588 5582 5575 5569 5565 5563 5563 5563 5564 5563 5565 5568 5573 5578 5585
5647 5645 5642 5638 5635 5630 5628 5626 5624 5623 5622 5622 5622 5623 5623 5623 5622 5619 5616 5612 5606 5600 5596 5593 5590 5587 5582 5576 5571 5566 5558 5551 5547 5546 5545 5544 5545 5544 5545 5547 5553 5560 5565
5633 5630 5628 5625 5622 5618 5616 5614 5613 5613 5611 5611 5611 5612 5613 5613 5611 5606 5601 5596 5591 5587 5583 5579 5577 5573 5569 5563 5557 5550 5542 5536 5533 5531 5530 5528 5527 5527 5529 5530 5534 5541 5548
5618 5616 5613 5609 5607 5604 5602 5601 5603 5602 5601 5601 5601 5602 5602 5600 5597 5592 5588 5583 5578 5574 5570 5567 5564 5561 5556 5550 5544 5538 5530 5524 5520 5518 5516 5514 5514 5515 5515 5517 5519 5525 5532
5606 5603 5599 5596 5594 5593 5592 5590 5590 5591 5592 5591 5590 5589 5588 5587 5584 5580 5576 5570 5567 5563 5559 5556 5554 5550 5546 5541 5535 5529 5521 5513 5509 5506 5504 5503 5501 5503 5503 5505 5507 5509 5514
5593 5590 5586 5582 5583 5583 5582 5580 5578 5579 5580 5579 5578 5577 5576 5575 5572 5569 5563 5558 5555 5551 5547 5544 5542 5539 5535 5531 5527 5521 5514 5506 5499 5496 5494 5492 5489 5491 5493 5494 5495 5496 5498
5580 5579 5575 5572 5572 5572 5570 5569 5568 5567 5568 5567 5566 5565 5564 5562 5560 5557 5552 5548 5544 5540 5537 5534 5531 5528 5524 5521 5518 5513 5506 5499 5492 5488 5485 5482 5481 5481 5482 5483 5485 5486 5487
5566 5566 5564 5563 5562 5561 5558 5557 5557 5557 5556 5556 5555 5553 5551 5550 5548 5545 5541 5537 5533 5529 5526 5524 5521 5517 5513 5510 5508 5504 5498 5493 5487 5481 5476 5473 5471 5472 5472 5473 5475 5476 5476
5555 5554 5553 5552 5550 5549 5548 5547 5546 5546 5546 5545 5544 5542 5539 5537 5535 5533 5529 5525 5521 5518 5515 5513 5511 5507 5502 5500 5497 5495 5491 5487 5482 5477 5472 5468 5465 5463 5462 5463 5464 5466 5466
5541 5541 5540 5539 5537 5537 5538 5538 5536 5535 5534 5533 5532 5530 5527 5525 5523 5521 5517 5513 5509 5505 5503 5501 5499 5496 5492 5489 5487 5486 5482 5478 5475 5472 5468 5464 5459 5456 5454 5453 5453 5454 5456
5529 5528 5528 5527 5526 5526 5526 5526 5525 5523 5522 5521 5520 5518 5516 5514 5511 5508 5504 5500 5496 5492 5490 5489 5487 5484 5481 5479 5476 5475 5471 5468 5465 5462 5459 5457 5454 5450 5446 5445 5445 5445 5445
5517 5517 5516 5517 5518 5516 5515 5514 5513 5512 5510 5509 5508 5506 5504 5501 5498 5495 5492 5488 5484 5480 5477 5476 5474 5472 5470 5468 5465 5463 5461 5457 5454 5451 5447 5445 5444 5441 5437 5435 5435 5434 5434
5505 5505 5506 5506 5506 5505 5505 5503 5502 5501 5499 5498 5496 5494 5491 5488 5485 5482 5478 5475 5471 5468 5465 5464 5462 5460 5457 5455 5453 5451 5449 5446 5443 5439 5435 5432 5429 5427 5423 5420 5419 5418 5419
5495 5495 5495 5496 5495 5495 5494 5493 5491 5490 5488 5486 5484 5480 5478 5475 5471 5468 5465 5462 5458 5456 5454 5452 5449 5447 5445 5443 5440 5437 5435 5432 5429 5426 5422 5419 5414 5410 5407 5403 5399 5397 5395
5481 5485 5485 5485 5485 5485 5483 5481 5480 5478 5477 5474 5470 5467 5464 5461 5457 5454 5452 5449 5446 5444 5441 5438 5436 5434 5432 5430 5427 5424 5420 5416 5413 5410 5406 5402 5398 5393 5388 5383 5378 5373 5370
5469 5472 5475 5475 5476 5475 5472 5470 5468 5466 5464 5461 5458 5454 5451 5447 5444 5442 5439 5436 5434 5432 5429 5426 5424 5421 5418 5416 5413 5409 5405 5401 5396 5391 5386 5381 5377 5372 5366 5360 5353 5348 5344
5458 5460 5464 5466 5466 5465 5462 5460 5456 5453 5451 5449 5446 5441 5437 5434 5432 5429 5427 5424 5421 5419 5417 5414 5411 5409 5405 5401 5397 5392 5388 5383 5378 5372 5365 5359 5353 5347 5341 5334 5328 5321 5314
5448 5450 5454 5457 5456 5455 5453 5451 5447 5444 5441 5437 5433 5428 5424 5422 5420 5417 5414 5411 5409 5406 5403 5401 5398 5394 5390 5385 5380 5375 5369 5363 5357 5351 5345 5338 5330 5322 5314 5308 5301 5295 5290
5434 5437 5442 5446 5445 5445 5444 5441 5437 5433 5429 5424 5420 5416 5413 5411 5408 5404 5402 5399 5395 5392 5388 5385 5381 5377 5373 5367 5361 5355 5348 5340 5334 5327 5320 5312 5305 5297 5291 5285 5279 5272 5267